Flag for Germany Weather past 2 weeks in Kaiserslautern, Rhineland-Palatinate, Germany

Now
38 °F

Clear.


Feels Like: 38 °F
Forecast: 35 / 61 °F
Wind: No wind

Location: Ramstein

Current Time: Apr 20, 2015 at 1:24:51 AM

Latest Report: Apr 20, 2015 at 12:58 AM


Visibility: N/A

Pressure: 30.21 "Hg

Humidity: 72%

Dew point: 30 °F

Location of KaiserslauternLocation

Historic Weather in Kaiserslautern — Graph

°F

Kaiserslautern temperature yesterday

Maximum temperature yesterday: 63 °F (at 4:02 PM)
Minimum temperature yesterday: 27 °F (at 5:58 AM)
Average temperature yesterday: 46 °F

Past Weeks' High & Low Weather Summary

 TemperatureHumidityPressure
High79 °F (Apr 15, 4:58 PM)100% (Apr 5, 5:58 AM)30.67 "Hg (Apr 5, 5:58 AM)
Low22 °F (Apr 7, 6:58 AM)17% (Apr 10, 5:58 PM)29.87 "Hg (Apr 17, 5:58 AM)
Average48 °F66%30.26 "Hg
* Reported Apr 4 11:58 PM — Apr 19 11:58 PM, Kaiserslautern, Weather by CustomWeather, © 2015

Note: Actual official high and low records may vary slightly from our data, if they occured in-between our weather recording intervals... More about our weather records

Advertising

Kaiserslautern weather history for previous 24 hours

 ConditionsComfort  
Time TempWeatherWind HumidityBarometerVisibility
11:58 PM
Sun, Apr 19
34 °FClear.3 mph86%30.20 "HgN/A
8:58 PM50 °FSunny.6 mph43%30.14 "HgN/A
7:58 PM59 °FSunny.14 mph31%30.12 "HgN/A
6:58 PM61 °FSunny.16 mph29%30.11 "HgN/A
5:58 PM62 °FSunny.15 mph27%30.10 "HgN/A
4:58 PM63 °FSunny.12 mph25%30.08 "HgN/A
4:02 PM63 °FSunny.13 mph27%30.07 "HgN/A
2:58 PM61 °FSunny.16 mph25%30.11 "HgN/A
1:58 PM59 °FSunny.13 mph26%30.11 "HgN/A
12:58 PM57 °FSunny.12 mph29%30.13 "HgN/A
11:58 AM55 °FSunny.12 mph31%30.14 "HgN/A
10:58 AM54 °FSunny.14 mph33%30.12 "HgN/A
9:58 AM50 °FSunny.12 mph45%30.14 "HgN/A
8:58 AM42 °FSunny.6 mph64%30.15 "HgN/A
7:58 AM33 °FSunny.1 mph92%30.16 "HgN/A
6:58 AM28 °FClear.No wind97%30.17 "HgN/A
5:58 AM27 °FClear.3 mph96%30.16 "HgN/A
4:58 AM27 °FClear.2 mph99%30.18 "HgN/A
3:58 AM29 °FClear.2 mph96%30.19 "HgN/A
2:58 AM28 °FClear.No wind100%30.21 "HgN/A
1:58 AM32 °FClear.No wind87%30.23 "HgN/A
Weather by CustomWeather, © 2015

See weather overviewHow to use our weather pages